#timestamp,LO_Frequency,Hit,StdDev 
1619708415.5,286016729.5,N
1619708435.3,286016729.3,N
1619708455.1,286016729.9,N
1619708475.9,286016730.2,N
1619708495.7,286016730.2,N
1619708515.6,286016730.3,N
1619708535.4,286016730.0,N
1619708555.2,286016730.5,N
1619708575.1,286016727.5,N
1619708576.0,286016727.5,N
1619708595.8,286016730.2,Y
1619708615.7,286046996.5,P
1619708635.5,286046997.0,N
1619708655.3,286046999.5,N
1619708675.2,286046996.9,N
1619708695.0,286046997.0,N
1619708695.9,286046997.0,N
1619708715.8,286046997.1,N
1619708735.6,286046996.5,N
1619708755.4,286046996.9,N
1619708775.3,286046996.8,N
1619708795.1,286046997.2,N
1619708815.8,286046997.2,N
1619708835.7,286046997.3,N
1619708855.5,286046997.7,N
1619708875.4,286046998.0,N
1619708895.2,286046995.3,N
1619708915.0,286046998.0,N
1619708915.9,286046998.0,N
1619708935.8,286046997.6,N
1619708955.6,286046997.3,N
1619708975.4,286046996.7,N
1619708995.3,286046997.5,N
1619709015.1,286046997.5,N
1619709035.9,286046997.2,N
1619709055.7,286046997.3,N
1619709075.5,286046998.0,N
1619709095.4,286046997.2,N
1619709115.2,286047001.1,N
1619709135.0,286046999.0,N
1619709136.0,286046999.0,N
1619709155.8,286046996.8,Y
1619709175.6,286047000.3,P
1619709195.5,286047001.1,N
1619709215.3,286046999.5,N
1619709235.1,286046997.4,N
1619709255.9,286046997.4,N
1619709275.7,286046997.0,N
1619709295.6,286046996.9,N
1619709315.4,286046995.0,Y
1619709335.2,286046996.6,P
1619709355.1,286046999.2,N
1619709356.0,286046999.2,N
1619709375.8,286046999.4,N
1619709395.7,286046996.9,Y
1619709415.5,286046999.0,P
1619709435.3,286046998.3,P
1619709455.2,286046998.8,P
1619709475.0,286046998.6,Y
1619709475.9,286046998.6,P
1619709495.8,286046998.1,P
1619709515.6,286047000.2,N
1619709535.4,286047002.4,Y
1619709555.3,286047004.3,P
1619709575.1,286047001.7,N
1619709595.9,286047001.8,N
1619709615.7,286047001.7,N
1619709635.5,286047001.6,N
1619709655.4,286047001.6,N
1619709675.2,286047002.6,N
1619709695.0,286047002.7,N
1619709696.0,286047002.7,N
1619709715.8,286047000.1,N
1619709735.6,286047002.6,N
1619709755.5,286047002.4,N
1619709775.3,286047002.8,N
1619709795.1,286047002.4,N
1619709815.9,286047002.3,N
1619709835.7,286047002.3,N
1619709855.6,286047002.7,N
1619709875.4,286046999.9,N
1619709895.2,286047002.6,N
1619709915.1,286046999.8,N
1619709916.0,286046999.8,N
1619709935.8,286046999.8,N
1619709955.6,286046999.8,N
1619709975.5,286046999.9,N
1619709995.3,286046999.9,N
1619710015.2,286047000.0,N
1619710035.9,286047000.3,N
1619710055.7,286046998.6,N
1619710075.6,286046998.1,N
1619710095.4,286047000.8,N
1619710115.2,286046998.5,N
1619710135.1,286046998.2,N
1619710136.0,286046998.2,N
1619710155.8,286047001.1,N
1619710175.7,286046999.0,N
1619710195.5,286046998.4,N
1619710215.3,286046999.0,N
1619710235.2,286046999.3,N
1619710255.0,286046999.1,N
1619710255.9,286046999.1,N
1619710275.8,286046999.1,N
1619710295.6,286046999.2,N
1619710315.4,286046999.1,N
1619710335.3,286046997.3,N
1619710355.1,286046997.3,N
1619710375.8,286046997.4,N
1619710395.7,286046997.8,N
1619710415.5,286046994.9,Y
1619710435.4,286046996.8,P
1619710455.2,286046997.8,N
1619710475.0,286046996.7,P
1619710475.9,286046996.7,Y
1619710495.8,286046998.2,P
1619710515.6,286046998.7,P
1619710535.5,286046998.7,P
1619710555.3,286046999.0,N
1619710575.1,286046999.2,N
1619710595.9,286046999.3,N
1619710615.7,286046996.7,Y
1619710635.5,286046998.3,P
1619710655.4,286046998.7,P
1619710675.2,286046999.1,P
1619710695.1,286046996.9,Y
1619710696.0,286046996.9,P
1619710715.8,286046999.0,N
1619710735.6,286046997.0,P
1619710755.5,286046997.0,Y
1619710775.3,286046998.8,P
1619710795.2,286046999.4,N
1619710815.9,286046999.1,N
1619710835.7,286046998.5,N
1619710855.6,286046999.0,N
1619710875.4,286046996.5,Y
1619710895.3,286047001.1,P
1619710915.1,286047000.4,N
1619710916.0,286047000.4,N
1619710935.8,286047000.5,N
1619710955.7,286047000.6,N
1619710975.5,286047000.5,N
1619710995.3,286047000.6,N
1619711015.2,286047000.6,N
1619711035.0,286047000.4,N
1619711035.9,286047000.4,N
1619711055.8,286047000.7,N
1619711075.6,286047001.2,N
1619711095.4,286046998.5,N
1619711115.3,286046998.2,N
1619711135.1,286047001.2,N
1619711155.8,286046998.2,N
1619711175.7,286047000.7,N
1619711195.5,286047001.1,N
1619711215.4,286046998.6,N
1619711235.2,286046998.6,N
1619711255.0,286046998.2,N
1619711255.9,286046998.2,N
1619711275.8,286046998.5,N
1619711295.6,286047000.6,N
1619711315.5,286047000.6,N
1619711335.3,286046998.2,N
1619711355.1,286047000.8,N
1619711375.9,286047000.8,N
1619711395.7,286047001.2,N
1619711415.5,286047000.8,N
1619711435.4,286047000.8,N
1619711455.2,286046998.1,N
1619711475.1,286046998.9,N
1619711476.0,286046998.9,N
1619711495.8,286046998.9,N
1619711515.6,286046998.5,N
1619711535.5,286046998.7,N
1619711555.3,286046999.2,N
1619711575.1,286046999.5,N
1619711595.9,286046999.4,N
1619711615.7,286046998.9,N
1619711635.6,286046998.9,N
1619711655.4,286046998.9,N
1619711675.2,286046998.3,N
1619711695.1,286046999.0,N
1619711696.0,286046999.0,N
1619711715.8,286046999.3,N
1619711735.7,286046999.5,N
1619711755.5,286046996.6,Y
1619711775.3,286046998.7,P
1619711795.2,286046998.5,P
1619711815.0,286046998.5,P
1619711815.9,286046998.5,Y
1619711835.8,286047000.9,P
1619711855.6,286047001.0,N
1619711875.4,286047000.7,N
1619711895.3,286047000.5,N
1619711915.1,286047002.8,Y
1619711935.8,286047000.1,P
1619711955.7,286047000.3,N
1619711975.5,286047000.7,P
1619711995.4,286047000.8,Y
